カタログに戻る

SL-12 R/B(2)

運用中GEO
NORAD 23429·ROCKET BODY·🇷🇺 Russia

打ち上げ Dec 16, 1994 から Baikonur Cosmodrome

Loading…

TLE

最新Source: Space-Track

元期: Aug 29, 2026, 19:26 UTC

1 23429U 94082D   26241.81012303  .00000114  00000-0  00000+0 0  9991
2 23429  14.5654 353.4866 0027336 144.0471 161.3702  1.00795538116639

AllMySatでSL-12 R/B(2)をリアルタイム追跡

Download on the App Store